Regional Weather Roundup
Issued by NWS

Home | Current Version | Previous Version | Graphics & Text | Print | Product List | Glossary On
Versions: 1 2 3 4 5 6 7 8 9 10 11 12 13 14 15 16 17 18 19 20 21 22 23 24 25 26 27 28 29 30 31 32 33 34 35 36 37 38 39 40 41 42 43 44 45 46 47 48 49 50
574
ASUS44 KLIX 251805
RWRLA
LOUISIANA WEATHER ROUNDUP
NATIONAL WEATHER SERVICE NEW ORLEANS LA
1200 PM CST SUN JAN 25 2015

NOTE: "FAIR" INDICATES FEW OR NO CLOUDS BELOW 12,000 FEET WITH NO
      SIGNIFICANT WEATHER AND/OR OBSTRUCTIONS TO VISIBILITY.
      SKY/WX - SKY CONDITION AND SIGNIFICANT WEATHER.
      TMP - AIR TEMPERATURE.    DP   - DEWPOINT TEMPERATURE.
      RH  - RELATIVE HUMIDITY.  PRES - PRESSURE.
      HX  - HEAT INDEX.         WCI  - WIND CHILL INDEX.

*  THESE STATIONS ARE NOT NWS OR FAA STATIONS AND ARE NOT UNDER
   NWS QUALITY CONTROL.

LAZ040-048-061>063-065-066-069-251900-
SOUTHEAST LOUISIANA

CITY           SKY/WX    TMP DP  RH WIND       PRES   REMARKS
N.O. AUDUBON   NOT AVBL
N.O. INTL ARPT MOSUNNY   63  41  44 SW16      29.98F
6HR MIN TEMP:  41; 6HR MAX TEMP:  63;

N.O. LAKEFRONT SUNNY     63  41  44 SW15      29.99F
6HR MIN TEMP:  47; 6HR MAX TEMP:  63;

N.O. DOWNTOWN* FAIR     N/A N/A N/A SW12G20   29.99F
6HR MIN TEMP:  45; 6HR MAX TEMP:  63;

SLIDELL        SUNNY     59  39  47 SW13G20   29.97F
6HR MIN TEMP:  35; 6HR MAX TEMP:  60;

BATON ROUGE    SUNNY     65  37  35 SW15      29.95F
6HR MIN TEMP:  39; 6HR MAX TEMP:  65;

BOOTHVILLE     SUNNY     61  51  70 SW14      30.01F
6HR MIN TEMP:  47; 6HR MAX TEMP:  61;

BELLE CHASSE   MOSUNNY   63  41  44 SW16G22   29.98F
6HR MIN TEMP:  37; 6HR MAX TEMP:  63;

BOGALUSA*        N/A     63  39  41 SW10G18   29.96F
6HR MIN TEMP:  32; 6HR MAX TEMP:  63;

GALLIANO*      CLEAR     65  48  53 MISG      30.00F
6HR MIN TEMP:  37; 6HR MAX TEMP:  65;

NEW ROADS*     FAIR      64  39  40 SW16G24   29.95F
6HR MIN TEMP:  36; 6HR MAX TEMP:  64;

GONZALES*      FAIR      64  38  38 W8G16     29.98F
6HR MIN TEMP:  37; 6HR MAX TEMP:  64;

HAMMOND*       SUNNY     64  34  32 SW9       29.97F
HOUMA*         SUNNY     64  43  45 SW17      30.00F
PORT FOURCHON* CLEAR     61  50  67 W12G21    30.05F

$$

LAZ041-044-053-054-251900-
SOUTHWEST LOUISIANA

CITY           SKY/WX    TMP DP  RH WIND       PRES   REMARKS
LAKE CHARLES   SUNNY     63  42  46 W14G21    29.99F
6HR MIN TEMP:  39; 6HR MAX TEMP:  63;

LAFAYETTE      SUNNY     63  42  46 W15       29.99F
6HR MIN TEMP:  42; 6HR MAX TEMP:  63;

PATTERSON      SUNNY     63  45  51 W20G29    30.01F
6HR MIN TEMP:  36; 6HR MAX TEMP:  63;

SALT POINT       N/A     55  50  83 VRB5      30.01F
6HR MIN TEMP:  46; 6HR MAX TEMP:  57; 6HR PCP:  0.01;

NEW IBERIA     SUNNY     65  43  44 W15       30.00F
6HR MIN TEMP:  38; 6HR MAX TEMP:  65;

CHENAULT AIRPK SUNNY     64  43  45 SW13      29.98F

$$

LAZ027-028-251900-
CENTRAL LOUISIANA

CITY           SKY/WX    TMP DP  RH WIND       PRES   REMARKS
FORT POLK      SUNNY     62  42  48 W12       29.92F
6HR MIN TEMP:  40; 6HR MAX TEMP:  62;

ALEXANDRIA INT SUNNY     64  44  48 SW15      29.90F
6HR MIN TEMP:  38; 6HR MAX TEMP:  64;

ALEXANDRIA     SUNNY     66  41  40 W22G28    29.89F
6HR MIN TEMP:  30; 6HR MAX TEMP:  67;


$$

LAZ001-002-251900-
NORTHWEST LOUISIANA

CITY           SKY/WX    TMP DP  RH WIND       PRES   REMARKS
SHREVEPORT     MOSUNNY   63  37  38 W18G26    29.89F
6HR MIN TEMP:  38; 6HR MAX TEMP:  63;

BARKSDALE AFB  SUNNY     62  38  41 NW16      29.89F
6HR MIN TEMP:  33; 6HR MAX TEMP:  62;

DTN SHREVEPORT SUNNY     61  36  39 NW18G24   29.89F
6HR MIN TEMP:  40; 6HR MAX TEMP:  62;


$$

LAZ014-016-251900-
NORTHEAST LOUISIANA

CITY           SKY/WX    TMP DP  RH WIND       PRES   REMARKS
MONROE         SUNNY     61  42  49 W16       29.85F
6HR MIN TEMP:  37; 6HR MAX TEMP:  61;

TALLULAH       SUNNY     62  41  46 SW9G18    29.84F
6HR MIN TEMP:  39; 6HR MAX TEMP:  62;


$$




USA.gov is the U.S. government's official web portal to all federal, state and local government web resources and services.